Home   Weather   Wertheim   Past weeks

Flag for Germany Past Weather in Wertheim, Baden-Württemberg, Germany — Yesterday and Last 2 Weeks

Now
45 °F

Passing clouds.


Feels Like: 42 °F
Forecast: 33 / 43 °F
Wind: 5 mph from Southwest

Location: Niederstetten

Current Time: Dec 10, 2016 at 2:12:36 am

Latest Report: Dec 10, 2016 at 1:20 am


Visibility: N/A

Pressure: 30.36 "Hg

Humidity: 71%

Dew Point: 36 °F

Location of WertheimLocation

Past Weather in Wertheim — Graph

°F

Wertheim Temperature Yesterday

Maximum temperature yesterday: 45 °F (at 7:20 pm)
Minimum temperature yesterday: 37 °F (at 3:20 am)
Average temperature yesterday: 40 °F

High & Low Weather Summary for the Past Weeks

 TemperatureHumidityPressure
High46 °F (Nov 25, 3:20 pm)100% (Nov 26, 10:20 am)30.54 "Hg (Nov 26, 10:20 am)
Low19 °F (Dec 4, 6:20 am)53% (Dec 8, 1:20 pm)30.01 "Hg (Nov 25, 4:20 am)
Average32 °F85%30.29 "Hg
* Reported Nov 25 12:20 am — Dec 10 12:20 am, Wertheim, Weather by CustomWeather, © 2016

Note: Actual official high and low records may vary slightly from our data, if they occured in-between our weather recording intervals... More about our weather records

Advertising

Wertheim Weather History for the Previous 24 Hours

Scroll right to see more
 ConditionsComfort  
Time TempWeatherWind HumidityBarometerVisibility
12:20 am
Sat, Dec 10
46 °FPassing clouds.7 mph66%30.39 "HgN/A
11:20 pm
Fri, Dec 9
45 °FPassing clouds.7 mph71%30.39 "HgN/A
10:20 pm41 °FPassing clouds.10 mph76%30.39 "HgN/A
9:20 pm41 °FPassing clouds.9 mph76%30.42 "HgN/A
8:20 pm43 °FPassing clouds.7 mph71%30.42 "HgN/A
7:20 pm45 °FPartly cloudy.9 mph71%30.42 "HgN/A
6:20 pm43 °FMostly cloudy.10 mph76%30.42 "HgN/A
5:20 pm41 °FMostly cloudy.7 mph81%30.42 "HgN/A
4:20 pm39 °FPassing clouds.12 mph93%30.45 "HgN/A
3:20 pm39 °FDrizzle. More clouds than sun.12 mph87%30.45 "Hg4 mi
2:20 pm39 °FDrizzle. Overcast.9 mph81%30.45 "Hg4 mi
1:20 pm39 °FDrizzle. Overcast.10 mph81%30.45 "HgN/A
12:20 pm41 °FOvercast.13 mph66%30.45 "HgN/A
11:20 am41 °FOvercast.12 mph61%30.45 "HgN/A
10:20 am41 °FPartly sunny.14 mph61%30.45 "HgN/A
8:20 am39 °FPartly sunny.14 mph65%30.42 "HgN/A
7:20 am39 °FPassing clouds.12 mph61%30.42 "HgN/A
6:20 am39 °FPassing clouds.14 mph61%30.39 "HgN/A
5:20 am39 °FPassing clouds.10 mph61%30.42 "HgN/A
4:20 am37 °FChilly.10 mph70%30.42 "HgN/A
3:20 am37 °FChilly.12 mph70%30.42 "HgN/A
2:20 am39 °FChilly.14 mph65%30.42 "HgN/A
Weather by CustomWeather, © 2016

See weather overviewHow to use our weather pages